DW6277 Weather Reports


Display with metric or nautical units.
time (UTC)temp
F
wind
direction
speed
MPH
gust
MPH
rain 1hr
in
rain 24hr
in
rain mn
in
humidity
%
barometer
mb
20260505213638 55 305 2.0 5.0 0.00 0.00 0.00 92 1019.7
20260505211433 54 327 2.0 4.0 0.00 0.00 0.00 92 1019.6
20260505210403 54 325 2.0 5.0 0.00 0.00 0.00 92 1019.6
20260505205336 54 326 2.0 5.0 0.00 0.00 0.00 92 1019.5
20260505204323 54 324 2.0 5.0 0.00 0.00 0.00 92 1019.5
20260505203308 54 300 2.0 5.0 0.00 0.00 0.00 92 1019.4
20260505201137 54 316 2.0 5.0 0.00 0.00 0.00 91 1019.2
20260505200148 54 321 2.0 5.0 0.00 0.00 0.00 91 1019.2
20260505195207 54 318 2.0 5.0 0.00 0.00 0.00 91 1019.1
20260505194145 55 314 1.0 3.0 0.00 0.00 0.00 91 1019.2
20260505193145 54 330 1.0 4.0 0.00 0.00 0.00 91 1019.2
20260505192205 54 315 1.0 4.0 0.00 0.00 0.00 91 1019.1
20260505190126 55 321 1.0 4.0 0.00 0.00 0.00 90 1018.9
20260505185107 55 326 1.0 3.0 0.00 0.00 0.00 90 1019.0
20260505183000 55 317 0.0 3.0 0.00 0.00 0.00 90 1018.9
20260505180856 56 313 0.0 2.0 0.00 0.00 0.00 89 1018.7
20260505175904 56 321 0.0 2.0 0.00 0.00 0.00 89 1018.6
20260505174833 56 304 0.0 2.0 0.00 0.00 0.00 89 1018.7
20260505173837 56 261 1.0 5.0 0.00 0.00 0.00 90 1018.8
20260505172826 56 290 0.0 5.0 0.00 0.00 0.00 89 1018.9
20260505171820 56 193 0.0 5.0 0.00 0.00 0.00 91 1018.9
20260505170752 55 328 0.0 0.0 0.00 0.00 0.00 90 1019.0
20260505165726 56 328 1.0 3.0 0.00 0.00 0.00 89 1019.0
20260505164745 56 312 2.0 4.0 0.00 0.00 0.00 89 1019.0
20260505163727 56 312 2.0 4.0 0.00 0.01 0.00 89 1019.1
20260505162708 56 320 1.0 3.0 0.00 0.03 0.00 89 1019.2
20260505161712 57 328 0.0 2.0 0.00 0.03 0.00 89 1019.1
20260505160650 57 339 0.0 2.0 0.00 0.03 0.00 88 1019.2
20260505151420 57 299 0.0 0.0 0.00 0.06 0.00 87 1019.6
20260505150355 58 299 0.0 0.0 0.00 0.06 0.00 86 1019.6
20260505140339 59 288 0.0 0.0 0.00 0.07 0.00 83 1019.7
20260505124932 61 282 0.0 0.0 0.00 0.09 0.07 81 1019.9
20260505123917 61 302 0.0 0.0 0.00 0.09 0.07 81 1019.9
20260505122848 61 302 0.0 0.0 0.00 0.09 0.07 80 1019.8
20260505121844 61 302 0.0 0.0 0.00 0.09 0.07 80 1019.8
20260505120844 62 302 0.0 0.0 0.00 0.09 0.07 79 1020.0
20260505115832 62 296 0.0 0.0 0.00 0.09 0.07 78 1020.1
20260505114834 62 270 0.0 0.0 0.00 0.09 0.07 78 1020.1
20260505113840 62 270 0.0 0.0 0.00 0.09 0.07 78 1019.9
20260505112819 62 269 0.0 1.0 0.00 0.09 0.07 79 1019.9
20260505111754 62 272 0.0 0.0 0.00 0.09 0.07 78 1019.8
20260505100415 64 276 0.0 0.0 0.00 0.14 0.07 76 1019.3
20260505095434 63 257 0.0 0.0 0.00 0.14 0.07 77 1019.2
20260505094455 63 253 0.0 2.0 0.00 0.14 0.07 78 1019.2
20260505093428 64 278 0.0 0.0 0.00 0.14 0.07 77 1019.1
20260505092410 64 277 0.0 0.0 0.00 0.14 0.07 76 1019.2
20260505091428 64 277 0.0 0.0 0.00 0.14 0.07 76 1019.1
20260505090450 65 277 0.0 1.0 0.00 0.14 0.07 75 1018.9
20260505085438 65 277 0.0 0.0 0.00 0.14 0.07 74 1018.9
20260505084444 65 277 0.0 0.0 0.00 0.14 0.07 74 1018.6
20260505083504 65 278 0.0 2.0 0.00 0.14 0.07 74 1018.5
20260505081314 66 195 0.0 0.0 0.00 0.14 0.07 73 1018.0
20260505080252 66 195 0.0 0.0 0.00 0.14 0.07 73 1017.8
20260505075236 66 195 0.0 0.0 0.00 0.14 0.07 71 1017.8
20260505074254 67 195 0.0 0.0 0.00 0.14 0.07 70 1017.7
20260505073319 68 195 0.0 0.0 0.00 0.14 0.07 69 1017.5
20260505072255 68 153 0.0 0.0 0.00 0.14 0.07 68 1017.4
20260505071225 69 153 0.0 2.0 0.00 0.14 0.07 67 1017.2
20260505070219 69 165 0.0 0.0 0.00 0.14 0.07 64 1017.0
20260505065243 69 165 0.0 0.0 0.00 0.14 0.07 64 1016.9
20260505064226 70 165 0.0 0.0 0.00 0.14 0.07 64 1016.8
20260505063204 70 165 0.0 0.0 0.00 0.14 0.07 64 1016.8
20260505061042 70 132 1.0 5.0 0.00 0.14 0.07 63 1016.8
20260505060032 70 134 2.0 6.0 0.00 0.14 0.07 62 1016.8
20260505053855 70 135 2.0 4.0 0.00 0.14 0.07 64 1016.5
20260505052823 70 146 2.0 5.0 0.00 0.14 0.07 63 1016.6
20260505051756 70 133 2.0 5.0 0.00 0.14 0.07 63 1016.4
20260505050816 70 141 2.0 6.0 0.00 0.14 0.07 64 1016.5
20260505041747 77 300 0.0 5.0 0.00 0.14 0.07 51 1016.3
20260505040750 76 78 1.0 4.0 0.00 0.14 0.07 52 1016.2
20260505035758 75 319 1.0 7.0 0.00 0.14 0.07 55 1016.1
20260505034822 75 337 1.0 7.0 0.00 0.14 0.07 55 1016.1
20260505033809 74 275 2.0 7.0 0.00 0.14 0.07 56 1016.3
20260505032800 75 300 1.0 4.0 0.00 0.14 0.07 56 1016.2
20260505031759 73 262 1.0 4.0 0.00 0.14 0.07 59 1016.3
20260505030743 72 208 2.0 6.0 0.00 0.14 0.07 58 1016.4
20260505025710 72 222 1.0 6.0 0.00 0.14 0.07 59 1016.7
20260505024722 71 309 2.0 7.0 0.00 0.14 0.07 59 1016.8
20260505023708 71 316 2.0 7.0 0.00 0.14 0.07 60 1017.0
20260505022710 71 304 1.0 5.0 0.00 0.14 0.07 60 1017.1
20260505021658 71 314 2.0 5.0 0.00 0.14 0.07 61 1017.1
20260505020637 71 311 1.0 4.0 0.00 0.14 0.07 61 1017.4
20260505015652 70 52 1.0 5.0 0.00 0.14 0.07 62 1017.4
20260505014633 70 316 1.0 5.0 0.00 0.14 0.07 62 1017.7
20260505013614 70 311 2.0 6.0 0.00 0.14 0.07 65 1017.6
20260505012555 70 325 1.0 6.0 0.00 0.14 0.07 65 1017.8
20260505011605 69 250 2.0 6.0 0.00 0.14 0.07 63 1017.9
20260505010558 69 323 1.0 6.0 0.00 0.14 0.07 61 1017.9
20260505005621 69 330 2.0 5.0 0.00 0.14 0.07 62 1018.1
20260505004614 68 263 1.0 5.0 0.00 0.14 0.07 63 1018.1
20260505003545 68 273 1.0 4.0 0.00 0.14 0.07 64 1018.3
20260505002543 68 311 0.0 4.0 0.00 0.14 0.07 64 1018.5
20260505001547 68 260 0.0 3.0 0.00 0.14 0.07 64 1018.5
20260504235450 68 232 2.0 6.0 0.00 0.14 0.07 64 1018.3
20260504234421 68 236 1.0 5.0 0.00 0.14 0.07 66 1018.4
20260504233428 68 238 1.0 5.0 0.00 0.14 0.07 66 1018.5
20260504232416 67 236 1.0 5.0 0.00 0.14 0.07 70 1018.7
20260504231346 66 271 1.0 6.0 0.00 0.14 0.07 74 1018.5
20260504230353 66 229 1.0 8.0 0.00 0.14 0.07 76 1018.6
20260504225344 66 330 1.0 8.0 0.00 0.14 0.07 77 1018.7
20260504224342 66 278 1.0 5.0 0.00 0.14 0.07 80 1018.6
20260504222135 64 193 2.0 6.0 0.00 0.14 0.07 86 1018.5
20260504215945 62 229 1.0 7.0 0.00 0.14 0.07 89 1018.1
20260504214922 61 184 1.0 6.0 0.00 0.14 0.07 91 1018.0